STARLINK E

Last updated on Wed Jul 02 2025 00:02:08 GMT+0000 (Coordinated Universal Time)

1 64598U 25137E 25182.75001157 -.00828671 22351-3 -21309-2 0 9991 2 64598 53.1566 79.6705 0001074 116.2382 159.3142 15.94509209 2055

Satellite not in orbit